Meteopurmerend
purmerend
Purmerend - Baaienwijk



My webcam  My webcam


waarschuwing voor Onweer Meer informatie blitzortung!


Regen radar Meer informatie rain snow radar


Bezoek onze andere website:

CandyAppleRed WebdesignWebdesign Purmerend Candy Apple Red

MeteopurmerendBlog

Template documentation
and downloads



Onweer van: 26-07-2021 13:00 tot: 21:00 waarschuwing voor: Onweer niveau: Geel info button
Enkele onweersbuien, lokaal met hagel en veel neerslag in korte tijd.Kans op blikseminslag, hagel en veel neerslag in korte tijd.Verkeer en buitenactiviteiten kunnen hinder ondervinden.Mijd open water en open gebied, schuil niet onder bomen.Volg weerberichten en waarschuwingen.

15 daagse weersverwachting Antwerpen (BE)

  • Overzicht
  • Per uur
  • 15 dagen
  • Extra
  • Vergelijk
  • Kaarten
  • Dagkaart
  • Meer »
  • Info
  • Statistieken
  • Directe link
    Temp 6h Neerslag Wind  
 06:01     21:38    Daglengte: 15:37 Vandaag
20:00
19°
4.2 mm
3
 06:02     21:36    Daglengte: 15:34 Morgen
02:00
17°
 
3
08:00
16°
 
4
14:00
21°
0.8 mm
4
warningclass
20:00
19°
5.6 mm
4
 06:04     21:35    Daglengte: 15:31 Woensdag 28 Jul
02:00
16°
 
4
08:00
16°
 
6
14:00
20°
35.8 mm
7
20:00
19°
64.1 mm
6
 06:05     21:33    Daglengte: 15:28 Donderdag 29 Jul
02:00
15°
26.5 mm
5
08:00
15°
26.8 mm
7
Locatie info
Region: Flandern
Latitude: 51.2221°N
Longitude: 4.3977°E
10 masl
Postcode: 2000
Temp/Neerslag /Baro Onweer/Dauwpunt
    Temp Baro 1h Neerslag Dauwpunt Wind UV Bewolking  
 06:01     21:38    Daglengte: 15:37 Vandaag
15:00
20°
1009.7 hPa 1.8 mm
48%
16.1°
5
Windvlaag: 4.9 m/s
70%
16:00
20°
1009.8 hPa 0.6 mm
80%
15.7°
4
Windvlaag: 5 m/s
74% warningclass
17:00
19°
1009.9 hPa 0.7 mm
82%
15.6°
5
Windvlaag: 4.7 m/s
70%
18:00
19°
1010.0 hPa 0.6 mm
82%
15.8°
4
Windvlaag: 4 m/s
79%
19:00
19°
1010.1 hPa
82%
15.7°
3
Windvlaag: 2 m/s
61%
20:00
19°
1010.2 hPa 0.5 mm
82%
15.9°
3
Windvlaag: 2.2 m/s
56%
21:00
18°
1010.6 hPa
33%
15.6°
3
Windvlaag: 2.9 m/s
50%
22:00
18°
1011.1 hPa
14%
16.1°
2
Windvlaag: 3.4 m/s
20%
23:00
17°
1011.5 hPa
14%
16.0°
2
Windvlaag: 3.4 m/s
56%
 06:02     21:36    Daglengte: 15:34 Morgen
00:00
17°
1011.6 hPa
14%
15.8°
2
Windvlaag: 2.9 m/s
61%
01:00
17°
1011.4 hPa
14%
15.9°
2
Windvlaag: 3.5 m/s
24%
02:00
17°
1011.3 hPa
14%
15.9°
3
Windvlaag: 4.4 m/s
20%
03:00
16°
1011.3 hPa
14%
15.7°
3
Windvlaag: 5 m/s
15%
04:00
16°
1011.2 hPa
14%
15.5°
3
Windvlaag: 5.8 m/s
13%
05:00
16°
1011.0 hPa
15%
14.8°
3
Windvlaag: 5.6 m/s
40%
06:00
16°
1010.8 hPa
14%
14.8°
3
Windvlaag: 5.2 m/s
58%
07:00
16°
1010.8 hPa
20%
14.9°
3
Windvlaag: 5.1 m/s
83%
08:00
16°
1010.8 hPa
56%
15.0°
4
Windvlaag: 6.6 m/s
85%
09:00
17°
1010.9 hPa
15%
15.3°
3
Windvlaag: 6.5 m/s
77%
10:00
18°
1011.1 hPa
16%
15.8°
4
Windvlaag: 6.5 m/s
85%
11:00
20°
1010.9 hPa
15%
15.5°
4
Windvlaag: 5.6 m/s
62%
12:00
21°
1010.8 hPa
72%
15.8°
4
Windvlaag: 5.5 m/s
32%
13:00
21°
1010.5 hPa 0.8 mm
80%
13.9°
4
Windvlaag: 5.3 m/s
81% warningclass
14:00
21°
1010.1 hPa
82%
15.1°
4
Windvlaag: 4.6 m/s
52%
15:00
21°
1010.3 hPa 2.4 mm
82%
17.7°
5
Windvlaag: 8.5 m/s
75%
16:00
20°
1010.0 hPa
82%
16.9°
4
Windvlaag: 7.4 m/s
84%
17:00
20°
1009.7 hPa
82%
15.8°
4
Windvlaag: 7.3 m/s
65%
18:00
19°
1009.6 hPa 3.2 mm
81%
15.6°
4
Windvlaag: 7.1 m/s
86%
19:00
19°
1009.5 hPa
30%
16.5°
4
Windvlaag: 6.9 m/s
86%
20:00
19°
1009.4 hPa
71%
16.8°
4
Windvlaag: 4.8 m/s
60%
21:00
18°
1009.5 hPa
79%
15.9°
3
Windvlaag: 4.8 m/s
61%
22:00
17°
1009.6 hPa
40%
16.3°
4
Windvlaag: 6.4 m/s
60%
23:00
17°
1009.8 hPa
77%
16.4°
4
Windvlaag: 7.3 m/s
67%
 06:04     21:35    Daglengte: 15:31 Woensdag 28 Jul
00:00
17°
1009.8 hPa
78%
15.0°
4
Windvlaag: 7.8 m/s
63%
01:00
17°
1009.5 hPa
79%
14.5°
4
Windvlaag: 7.9 m/s
69%
02:00
16°
1009.2 hPa
81%
14.5°
4
Windvlaag: 8.7 m/s
51%
03:00
16°
1008.9 hPa
67%
14.4°
4
Windvlaag: 8.6 m/s
61%
04:00
16°
1008.7 hPa
69%
13.9°
4
Windvlaag: 9 m/s
63%
05:00
16°
1008.6 hPa
74%
14.0°
4
Windvlaag: 8.9 m/s
59%
06:00
16°
1008.5 hPa
24%
13.9°
5
Windvlaag: 9.2 m/s
55%
07:00
16°
1008.7 hPa
70%
13.6°
6
Windvlaag: 9.2 m/s
78%
08:00
16°
1008.9 hPa
82%
13.6°
6
Windvlaag: 9.4 m/s
45%
09:00
16°
1008.9 hPa
82%
13.8°
7
Windvlaag: 10 m/s
62%
10:00
17°
1009.0 hPa
72%
13.7°
7
Windvlaag: 10.3 m/s
46%
11:00
18°
1008.8 hPa 12.5 mm
79%
13.4°
7
Windvlaag: 10.1 m/s
83%
12:00
18°
1008.9 hPa 7.9 mm
91%
12.7°
7
Windvlaag: 10.2 m/s
42%
13:00
19°
1008.9 hPa 7.7 mm
95%
13.5°
7
Windvlaag: 9.3 m/s
45%
14:00
20°
1008.9 hPa 7.7 mm
100%
13.0°
7
Windvlaag: 8.9 m/s
65%
15:00
20°
1009.2 hPa 8.0 mm
100%
12.8°
7
Windvlaag: 8.2 m/s
75%
16:00
20°
1009.2 hPa 8.0 mm
100%
11.9°
6
Windvlaag: 8.8 m/s
70%
17:00
20°
1009.4 hPa 8.4 mm
100%
12.4°
7
Windvlaag: 9.7 m/s
39%
18:00
20°
1009.0 hPa 13.2 mm
96%
10.8°
6
Windvlaag: 8.1 m/s
12%
19:00
20°
1008.9 hPa 13.4 mm
100%
10.1°
6
Windvlaag: 10.2 m/s
45%
20:00
19°
1008.8 hPa 13.1 mm
85%
10.4°
6
Windvlaag: 9.6 m/s
8%
21:00
19°
1008.9 hPa
23%
10.5°
5
Windvlaag: 8.4 m/s
20%
22:00
18°
1009.2 hPa 13.0 mm
21%
10.1°
6
Windvlaag: 8.4 m/s
62%
23:00
17°
1009.2 hPa 13.5 mm
22%
11.8°
5
Windvlaag: 8.7 m/s
80%
 06:05     21:33    Daglengte: 15:28 Donderdag 29 Jul
00:00
16°
1009.0 hPa
21%
12.5°
6
Windvlaag: 8.7 m/s
73%
01:00
16°
1008.8 hPa
21%
12.0°
6
Windvlaag: 9.4 m/s
17%
02:00
15°
1008.4 hPa
22%
12.2°
5
Windvlaag: 10.4 m/s
77%
03:00
15°
1008.0 hPa
25%
12.2°
6
Windvlaag: 11.2 m/s
67%
04:00
15°
1007.9 hPa
25%
12.6°
6
Windvlaag: 11.1 m/s
59%
05:00
14°
1007.8 hPa 13.4 mm
24%
11.9°
6
Windvlaag: 10.8 m/s
61%
06:00
14°
1008.2 hPa 13.4 mm
22%
11.7°
6
Windvlaag: 10.4 m/s
68%
07:00
14°
1008.3 hPa
22%
11.3°
6
Windvlaag: 9.7 m/s
68%
08:00
15°
1008.7 hPa
21%
11.4°
7
Windvlaag: 10.3 m/s
56%
09:00
16°
1010.2 hPa
23%
11.9°
6
Windvlaag: 13.7 m/s
18%
10:00
17°
1010.3 hPa
22%
11.9°
6
Windvlaag: 12.5 m/s
22%
11:00
18°
1010.5 hPa
23%
10.7°
7
Windvlaag: 13.1 m/s
48%
12:00
19°
1010.5 hPa
23%
10.0°
7
Windvlaag: 13.8 m/s
70%
13:00
19°
1010.8 hPa
23%
10.1°
7
Windvlaag: 13.2 m/s
23%
14:00
20°
1010.7 hPa
23%
11.3°
7
Windvlaag: 13.4 m/s
30%
Temp/Neerslag /Baro Onweer/Dauwpunt
    Temp Baro Neerslag Dauwpunt Wind Bewolking  
 06:01     21:38    Daglengte: 15:37 Vandaag
17:00
19°
1009.9 hPa 3.1 mm 15.6°
5
70%
20:00
19°
1010.2 hPa 1.1 mm 15.9°
3
56%
23:00
17°
1011.5 hPa   16.0°
2
56%
 06:02     21:36    Daglengte: 15:34 Morgen
02:00
17°
1011.3 hPa   15.9°
3
20%
05:00
16°
1011.0 hPa   14.8°
3
40%
08:00
16°
1010.8 hPa   15.0°
4
85%
11:00
20°
1010.9 hPa   15.5°
4
62%
14:00
21°
1010.1 hPa 0.8 mm 15.1°
4
52% warningclass
17:00
20°
1009.7 hPa 2.4 mm 15.8°
4
65%
20:00
19°
1009.4 hPa 3.2 mm 16.8°
4
60%
23:00
17°
1009.8 hPa   16.4°
4
67%
 06:04     21:35    Daglengte: 15:31 Woensdag 28 Jul
02:00
16°
1009.2 hPa   14.5°
4
51%
05:00
16°
1008.6 hPa   14.0°
4
59%
08:00
16°
1008.9 hPa   13.6°
6
45%
11:00
18°
1008.8 hPa 12.5 mm 13.4°
7
83%
14:00
20°
1008.9 hPa 23.3 mm 13.0°
7
65%
17:00
20°
1009.4 hPa 24.4 mm 12.4°
7
39%
20:00
19°
1008.8 hPa 39.8 mm 10.4°
6
8%
23:00
17°
1009.2 hPa 26.5 mm 11.8°
5
80%
 06:05     21:33    Daglengte: 15:28 Donderdag 29 Jul
02:00
15°
1008.4 hPa   12.2°
5
77%
05:00
14°
1007.8 hPa 13.4 mm 11.9°
6
61%
08:00
15°
1008.7 hPa 13.4 mm 11.4°
7
56%
11:00
18°
1010.5 hPa   10.7°
7
48%
14:00
20°
1010.7 hPa   11.3°
7
30%
17:00
18°
1010.4 hPa 6.0 mm 9.4°
8
10%
20:00
17°
1011.2 hPa 11.8 mm 10.0°
6
1%
23:00
15°
1011.3 hPa 11.8 mm 9.7°
5
1%
 06:07     21:32    Daglengte: 15:25 Vrijdag 30 Jul
02:00
14°
1011.2 hPa 11.8 mm 10.1°
4
7%
05:00
13°
1011.2 hPa 11.8 mm 10.4°
4
13%
08:00
14°
1011.2 hPa 6.0 mm 10.9°
4
20%
11:00
16°
1011.5 hPa 11.8 mm 10.0°
4
17%
14:00
19°
1010.6 hPa 6.1 mm 10.0°
5
11%
17:00
20°
1009.6 hPa 6.0 mm 11.5°
4
12%
20:00
19°
1008.6 hPa 12.4 mm 14.5°
3
21%
23:00
16°
1009.1 hPa 13.2 mm 14.7°
2
16%
 06:08     21:30    Daglengte: 15:22 Zaterdag 31 Jul
02:00
15°
1009.0 hPa 6.8 mm 13.8°
3
25%
05:00
14°
1007.7 hPa 13.3 mm 12.3°
3
22%
08:00
15°
1007.1 hPa 6.8 mm 12.1°
4
25%
11:00
14°
1006.4 hPa 7.2 mm 13.0°
5
22%
14:00
16°
1005.7 hPa 8.3 mm 13.6°
5
20%
17:00
18°
1006.5 hPa 8.4 mm 11.0°
5
11%
20:00
18°
1007.8 hPa 16.0 mm 12.0°
3
7%
23:00
15°
1008.9 hPa 16.0 mm 12.1°
2
4%
 06:10     21:29    Daglengte: 15:19 Zondag 01 Aug
02:00
14°
1008.4 hPa 16.0 mm 12.4°
3
7%
05:00
13°
1007.9 hPa 16.1 mm 12.0°
2
11%
08:00
14°
1008.1 hPa 8.2 mm 12.2°
3
20%
11:00
16°
1008.7 hPa 8.7 mm 13.0°
4
21%
14:00
18°
1009.4 hPa 9.3 mm 9.9°
5
4%
17:00
18°
1010.0 hPa 9.0 mm 9.5°
4
11%
20:00
17°
1011.4 hPa 9.1 mm 11.4°
4
11%
23:00
14°
1013.5 hPa 17.9 mm 10.8°
2
11%
 06:11     21:27    Daglengte: 15:16 Maandag 02 Aug
02:00
12°
1014.0 hPa 17.9 mm 9.3°
2
0%
05:00
11°
1014.5 hPa 17.9 mm 9.0°
2
0%
08:00
13°
1015.4 hPa 17.9 mm 9.5°
2
0%
11:00
16°
1016.6 hPa 18.0 mm 9.8°
3
1%
14:00
18°
1016.4 hPa 36.0 mm 9.0°
2
1%
20:00
19°
1015.3 hPa 36.0 mm 9.6°
0
1%
 06:13     21:25    Daglengte: 15:12 Dinsdag 03 Aug
02:00
13°
1015.9 hPa 36.4 mm 9.8°
2
1%
08:00
13°
1016.3 hPa 36.4 mm 8.5°
3
1%
14:00
22°
1015.4 hPa 36.4 mm 8.8°
5
1%
20:00
21°
1014.2 hPa 36.4 mm 11.5°
4
1%
 06:14     21:24    Daglengte: 15:10 Woensdag 04 Aug
02:00
16°
1013.5 hPa 36.4 mm 12.6°
4
1%
08:00
16°
1011.9 hPa 36.4 mm 10.2°
4
1%
14:00
22°
1010.2 hPa 36.4 mm 11.8°
8
1%
20:00
20°
1009.7 hPa 38.1 mm 11.1°
7
1%
 06:16     21:22    Daglengte: 15:06 Donderdag 05 Aug
02:00
15°
1010.1 hPa 38.4 mm 11.9°
4
0%
08:00
15°
1009.0 hPa 38.4 mm 12.8°
5
1%
14:00
20°
1013.2 hPa 1.9 mm 12.7°
3
60%
20:00
19°
1012.6 hPa 1.4 mm 12.8°
2
61%
 06:17     21:20    Daglengte: 15:03 Vrijdag 06 Aug
02:00
15°
1012.8 hPa 0.5 mm 11.7°
3
58%
08:00
15°
1012.4 hPa 0.7 mm 12.2°
4
58%
14:00
21°
1012.8 hPa 0.5 mm 12.3°
5
52%
20:00
19°
1012.9 hPa 1.4 mm 12.2°
4
50%
 06:19     21:18    Daglengte: 14:59 Zaterdag 07 Aug
02:00
15°
1013.7 hPa 0.2 mm 11.6°
3
45%
08:00
15°
1013.3 hPa 0.6 mm 11.9°
3
56%
14:00
21°
1013.2 hPa 1.3 mm 12.4°
4
58%
20:00
19°
1013.0 hPa 1.2 mm 13.0°
3
61%
 06:20     21:16    Daglengte: 14:56 Zondag 08 Aug
02:00
15°
1013.5 hPa 0.8 mm 12.0°
2
53%
08:00
15°
1013.3 hPa 0.5 mm 12.6°
3
62%
14:00
21°
1013.8 hPa 1.1 mm 12.8°
4
66%
20:00
19°
1013.9 hPa 0.4 mm 12.5°
3
66%
 06:22     21:15    Daglengte: 14:53 Maandag 09 Aug
02:00
15°
1015.3 hPa 0.2 mm 11.3°
2
47%
08:00
15°
1015.8 hPa 0.4 mm 11.8°
3
43%
14:00
21°
1016.6 hPa   12.1°
3
51%
20:00
20°
1016.4 hPa 0.7 mm 12.5°
3
51%
 06:23     21:13    Daglengte: 14:50 Dinsdag 10 Aug
02:00
15°
1017.3 hPa 0.2 mm 11.5°
2
49%
08:00
15°
1017.3 hPa 0.1 mm 11.9°
2
52%
14:00
22°
1017.6 hPa 0.6 mm 12.5°
3
59%
  CAPE Lifted Index Hail Supercell Tornado SRH 3km CL BTM PRES CL TOP PRES Swiss DWD icon SMHI TS
 06:01     21:38    Daglengte: 15:37 Vandaag
15:00 694 J/kg -2.6 K 0 % 0 % 0 % 0 m²/s² 0 0 -1.91 80
16:00 853 J/kg -2.9 K 0 % 0 % 0 % 0 m²/s² 0 0 -2.06 95
17:00 754 J/kg -2.5 K 0 % 0 % 0 % 0 m²/s² 0 0 -1.93 80
18:00 203 J/kg -1.0 K 0 % 0 % 0 % 0 m²/s² 0 0 -0.49 80
19:00 625 J/kg -2.4 K 0 % 0 % 0 % 0 m²/s² 0 0 -2.01 80
20:00 621 J/kg -2.5 K 0 % 0 % 0 % 0 m²/s² 0 0 -1.42 3
21:00 237 J/kg -1.3 K 0 % 0 % 0 % 0 m²/s² 0 0 -0.31 3
22:00 67 J/kg -0.3 K 0 % 0 % 0 % 0 m²/s² 0 0 0.6 3
23:00 68 J/kg -0.1 K 0 % 0 % 0 % 0 m²/s² 0 0 1.04 3
 06:02     21:36    Daglengte: 15:34 Morgen
00:00 43 J/kg -0.2 K 0 % 0 % 0 % 0 m²/s² 0 0 1.78 3
01:00 25 J/kg -1.2 K 0 % 0 % 0 % 0 m²/s² 0 0 0.78 2
02:00 52 J/kg -1.6 K 0 % 0 % 0 % 0 m²/s² 0 0 0.95 2
03:00 92 J/kg -1.0 K 0 % 0 % 0 % 0 m²/s² 0 0 1.7 2
04:00 0 J/kg -0.3 K 0 % 0 % 0 % 0 m²/s² 0 0 2.55 2
05:00 0 J/kg -0.2 K 0 % 0 % 0 % 0 m²/s² 0 0 2.83 3
06:00 0 J/kg 0.8 K 0 % 0 % 0 % 0 m²/s² 0 0 4.16 3
07:00 0 J/kg 0.2 K 0 % 0 % 0 % 0 m²/s² 0 0 3.56 3
08:00 0 J/kg -2.2 K 0 % 0 % 0 % 0 m²/s² 0 0 0.71 3
09:00 30 J/kg -2.2 K 0 % 0 % 0 % 0 m²/s² 0 0 0.05 3
10:00 287 J/kg -1.7 K 0 % 0 % 0 % 0 m²/s² 0 0 0.04 3
11:00 478 J/kg -2.2 K 0 % 0 % 0 % 0 m²/s² 0 0 -0.91 3
12:00 622 J/kg -2.6 K 0 % 0 % 0 % 0 m²/s² 0 0 -1.49 3
13:00 692 J/kg -2.8 K 0 % 0 % 0 % 0 m²/s² 0 0 -2.2 3
14:00 735 J/kg -3.1 K 0 % 0 % 0 % 0 m²/s² 0 0 -2.59 3
15:00 267 J/kg -0.7 K 0 % 0 % 0 % 0 m²/s² 0 0 0.2 3
16:00 91 J/kg -0.2 K 0 % 0 % 0 % 0 m²/s² 0 0 0.01 80
17:00 322 J/kg -0.9 K 0 % 0 % 0 % 0 m²/s² 0 0 -0.6 80
18:00 377 J/kg -1.6 K 0 % 0 % 0 % 0 m²/s² 0 0 -1.48 61
19:00 473 J/kg -1.5 K 0 % 0 % 0 % 0 m²/s² 0 0 -1.41 3
20:00 258 J/kg -1.0 K 0 % 0 % 0 % 0 m²/s² 0 0 -1 3
21:00 437 J/kg -1.6 K 0 % 0 % 0 % 0 m²/s² 0 0 -1.39 3
22:00 303 J/kg -1.5 K 0 % 0 % 0 % 0 m²/s² 0 0 -0.84 3
23:00 358 J/kg -1.4 K 0 % 0 % 0 % 0 m²/s² 0 0 -1.22 3
 06:04     21:35    Daglengte: 15:31 Woensdag 28 Jul
00:00 345 J/kg -1.7 K 0 % 0 % 0 % 0 m²/s² 0 0 -0.86 3
01:00 200 J/kg -1.1 K 0 % 0 % 0 % 0 m²/s² 0 0 0.82 3
02:00 58 J/kg -0.2 K 0 % 0 % 0 % 0 m²/s² 0 0 1.78 61
03:00 0 J/kg 0.8 K 0 % 0 % 0 % 0 m²/s² 0 0 3.14 3
04:00 0 J/kg 0.7 K 0 % 0 % 0 % 0 m²/s² 0 0 2.83 3
05:00 0 J/kg 2.0 K 0 % 0 % 0 % 0 m²/s² 0 0 4.49 3
06:00 0 J/kg 3.3 K 0 % 0 % 0 % 0 m²/s² 0 0 5.7 3
07:00 0 J/kg 4.0 K 0 % 0 % 0 % 0 m²/s² 0 0 6.34 3
08:00 0 J/kg 4.3 K 0 % 0 % 0 % 0 m²/s² 0 0 6.94 3
09:00 0 J/kg 3.5 K 0 % 0 % 0 % 0 m²/s² 0 0 6.62 80
10:00 23 J/kg 2.4 K 0 % 0 % 0 % 0 m²/s² 0 0 5.88 3
11:00 71 J/kg 1.5 K 0 % 0 % 0 % 0 m²/s² 0 0 4.29 3
12:00 84 J/kg 1.4 K 0 % 0 % 0 % 0 m²/s² 0 0 3.59 3
13:00 156 J/kg 0.6 K 0 % 0 % 0 % 0 m²/s² 0 0 3.21 2
14:00 207 J/kg 0.2 K 0 % 0 % 0 % 0 m²/s² 0 0 2.81 3
15:00 282 J/kg -0.4 K 0 % 0 % 0 % 0 m²/s² 0 0 2.27 80
16:00 279 J/kg -0.5 K 0 % 0 % 0 % 0 m²/s² 0 0 2.11 80
17:00 283 J/kg -0.4 K 0 % 0 % 0 % 0 m²/s² 0 0 2.36 80
18:00 169 J/kg 0.6 K 0 % 0 % 0 % 0 m²/s² 0 0 3.93 2
19:00 89 J/kg 1.4 K 0 % 0 % 0 % 0 m²/s² 0 0 4.49 2
20:00 60 J/kg 2.7 K 0 % 0 % 0 % 0 m²/s² 0 0 6.69 1
21:00 84 J/kg 2.9 K 0 % 0 % 0 % 0 m²/s² 0 0 3.74 1
22:00 8 J/kg 4.4 K 0 % 0 % 0 % 0 m²/s² 0 0 4.73 2
23:00 0 J/kg 5.6 K 0 % 0 % 0 % 0 m²/s² 0 0 6.53 2
 06:05     21:33    Daglengte: 15:28 Donderdag 29 Jul
00:00 2 J/kg 6.3 K 0 % 0 % 0 % 0 m²/s² 0 0 7.32 2
01:00 0 J/kg 6.8 K 0 % 0 % 0 % 0 m²/s² 0 0 8.84 2
02:00 42 J/kg 6.1 K 0 % 0 % 0 % 0 m²/s² 0 0 10.51 2
03:00 87 J/kg 6.6 K 0 % 0 % 0 % 0 m²/s² 0 0 11.22 2
04:00 101 J/kg 6.8 K 0 % 0 % 0 % 0 m²/s² 0 0 11.81 2
05:00 43 J/kg 7.9 K 0 % 0 % 0 % 0 m²/s² 0 0 13.6 3
06:00 29 J/kg 8.7 K 0 % 0 % 0 % 0 m²/s² 0 0 13.53 3
07:00 26 J/kg 8.9 K 0 % 0 % 0 % 0 m²/s² 0 0 12.83 3
08:00 67 J/kg 9.0 K 0 % 0 % 0 % 0 m²/s² 0 0 13.92 3
09:00 150 J/kg 8.0 K 0 % 0 % 0 % 0 m²/s² 0 0 13.04 2
10:00 191 J/kg 7.1 K 0 % 0 % 0 % 0 m²/s² 0 0 11.87 2
11:00 140 J/kg 6.6 K 0 % 0 % 0 % 0 m²/s² 0 0 10.62 2
12:00 127 J/kg 5.4 K 0 % 0 % 0 % 0 m²/s² 0 0 8.25 3
13:00 98 J/kg 4.1 K 0 % 0 % 0 % 0 m²/s² 0 0 8.12 3
14:00 110 J/kg 2.8 K 0 % 0 % 0 % 0 m²/s² 0 0 7.36 2
Temp Baro Wind Neerslag
  EWN Forecast EWN WRFDA DWD ICON FMI HIRLAM MET Norway GFSWXSIM
 06:01     21:38    Daglengte: 15:37 Vandaag
17:00 19.3° 1009.9 hPa 4.6 m/s 3.1 mm 21.1° 1009.5 hPa 5.9 m/s 0.7 mm 18.8° 1010.1 hPa 4.5 m/s 4.0 mm 21.2° 1008.9 hPa 3.9 m/s 0.0 mm 21.1° 1009.2 hPa 4.7 m/s 18.4° 1009.0 hPa 4.0 m/s 3.3 mm
20:00 18.7° 1010.2 hPa 2.8 m/s 1.1 mm 20.8° 1009.1 hPa 4.1 m/s 5.2 mm 18.4° 1010.4 hPa 3.0 m/s 0.9 mm 20.0° 1009.4 hPa 2.5 m/s 0.0 mm 19.7° 1010.0 hPa 3.4 m/s 17.4° 1010.0 hPa 3.0 m/s 2.0 mm
23:00 17.4° 1011.5 hPa 2.2 m/s 0.0 mm 18.0° 1010.7 hPa 1.1 m/s 5.5 mm 17.6° 1011.8 hPa 2.0 m/s 0.0 mm 17.4° 1010.8 hPa 2.3 m/s 0.0 mm 16.4° 1010.9 hPa 1.6 m/s 16.6° 1011.0 hPa 2.0 m/s 0.0 mm
 06:02     21:36    Daglengte: 15:34 Morgen
02:00 16.5° 1011.3 hPa 2.7 m/s 0.0 mm 16.2° 1010.2 hPa 2.0 m/s 5.5 mm 16.8° 1011.5 hPa 2.7 m/s 0.0 mm 16.3° 1010.6 hPa 1.8 m/s 0.0 mm 15.7° 1011.4 hPa 2.1 m/s 15.9° 1011.0 hPa 3.0 m/s 0.0 mm
05:00 15.8° 1011.0 hPa 3.1 m/s 0.0 mm 15.4° 1009.6 hPa 3.0 m/s 5.5 mm 16.0° 1011.4 hPa 3.1 m/s 0.0 mm 15.0° 1010.0 hPa 2.9 m/s 0.0 mm 15.1° 1010.7 hPa 2.7 m/s 15.4° 1011.0 hPa 3.0 m/s 0.0 mm
08:00 16.4° 1010.8 hPa 3.6 m/s 0.0 mm 17.2° 1009.8 hPa 3.9 m/s 5.5 mm 16.8° 1011.5 hPa 3.8 m/s 0.0 mm 15.7° 1009.9 hPa 2.9 m/s 0.0 mm 16.5° 1010.6 hPa 3.1 m/s 15.8° 1011.0 hPa 3.0 m/s 0.0 mm
11:00 19.6° 1010.9 hPa 4.0 m/s 0.0 mm 20.2° 1010.1 hPa 3.1 m/s 5.5 mm 19.4° 1011.2 hPa 3.6 m/s 0.0 mm 20.9° 1010.1 hPa 4.2 m/s 0.0 mm 19.9° 1010.5 hPa 3.8 m/s 16.8° 1010.0 hPa 4.0 m/s 0.3 mm
14:00 21.2° 1010.1 hPa 3.6 m/s 0.8 mm 22.0° 1009.7 hPa 1.3 m/s 6.2 mm 21.0° 1011.2 hPa 3.8 m/s 0.3 mm 23.4° 1008.8 hPa 4.4 m/s 0.0 mm 18.7° 1010.6 hPa 3.0 m/s 17.4° 1011.0 hPa 2.0 m/s 0.7 mm
17:00 19.7° 1009.7 hPa 4.3 m/s 2.4 mm 21.3° 1009.3 hPa 3.2 m/s 36.9 mm 19.4° 1010.4 hPa 4.3 m/s 2.2 mm 20.8° 1008.4 hPa 4.7 m/s 0.0 mm 22.6° 1009.7 hPa 3.3 m/s 17.4° 1010.0 hPa 3.0 m/s 1.0 mm
20:00 18.6° 1009.4 hPa 4.1 m/s 3.2 mm 18.0° 1009.1 hPa 0.7 m/s 66.6 mm 19.0° 1010.0 hPa 4.6 m/s 0.2 mm 18.8° 1008.3 hPa 4.9 m/s 0.0 mm 18.4° 1009.1 hPa 1.9 m/s 16.4° 1009.0 hPa 2.0 m/s 2.6 mm
23:00 17.5° 1009.8 hPa 3.8 m/s 0.0 mm 17.4° 1008.9 hPa 3.3 m/s 109.8 mm 17.6° 1009.9 hPa 3.7 m/s 0.2 mm 17.6° 1010.1 hPa 3.5 m/s 0.0 mm 16.5° 1010.3 hPa 4.3 m/s 15.5° 1010.0 hPa 4.0 m/s 1.0 mm
 06:04     21:35    Daglengte: 15:31 Woensdag 28 Jul
02:00 16.3° 1009.2 hPa 3.8 m/s 0.0 mm 16.5° 1008.3 hPa 3.4 m/s 110.8 mm 16.9° 1008.8 hPa 3.5 m/s 0.1 mm 15.8° 1010.3 hPa 3.4 m/s 0.0 mm 15.3° 1009.5 hPa 4.2 m/s 14.7° 1009.0 hPa 4.0 m/s 0.0 mm
05:00 15.8° 1008.6 hPa 4.4 m/s 0.0 mm 15.1° 1007.8 hPa 3.4 m/s 110.8 mm 16.7° 1008.1 hPa 4.2 m/s 0.2 mm 15.8° 1009.3 hPa 4.1 m/s 0.0 mm 15.5° 1009.2 hPa 4.8 m/s 14.2° 1009.0 hPa 4.0 m/s 0.0 mm
08:00 15.8° 1008.9 hPa 6.1 m/s 0.0 mm 15.2° 1008.5 hPa 5.4 m/s 110.8 mm 16.6° 1007.6 hPa 5.7 m/s 0.1 mm 15.8° 1009.6 hPa 6.6 m/s 0.0 mm 15.3° 1009.7 hPa 5.3 m/s 14.7° 1010.0 hPa 5.0 m/s 0.0 mm
11:00 18.1° 1008.8 hPa 6.8 m/s 12.5 mm 18.8° 1008.2 hPa 6.6 m/s 110.8 mm 18.0° 1009.0 hPa 6.7 m/s 0.3 mm 18.4° 1009.6 hPa 7.1 m/s 16.5° 1010.0 hPa 7.0 m/s 0.0 mm
14:00 19.9° 1008.9 hPa 7.0 m/s 23.3 mm 21.0° 1008.1 hPa 7.7 m/s 111.1 mm 20.0° 1009.0 hPa 6.8 m/s 0.4 mm 19.5° 1010.2 hPa 6.6 m/s 17.8° 1010.0 hPa 6.0 m/s 0.5 mm
17:00 19.6° 1009.4 hPa 6.5 m/s 24.4 mm 20.9° 1008.4 hPa 7.9 m/s 114.3 mm 19.5° 1009.5 hPa 6.0 m/s 1.5 mm 22.0° 1009.3 hPa 6.7 m/s 17.9° 1010.0 hPa 6.0 m/s 0.8 mm
20:00 19.3° 1008.8 hPa 6.1 m/s 39.8 mm 20.6° 1008.0 hPa 6.5 m/s 116.7 mm 19.5° 1008.8 hPa 5.7 m/s 0.1 mm 18.4° 1008.8 hPa 5.3 m/s 16.9° 1009.0 hPa 5.0 m/s 0.7 mm
23:00 16.8° 1009.2 hPa 5.2 m/s 26.5 mm 16.9° 1008.6 hPa 4.3 m/s 117.0 mm 16.9° 1009.3 hPa 5.3 m/s 0.0 mm 16.5° 1008.9 hPa 5.4 m/s 15.2° 1009.0 hPa 4.0 m/s 0.8 mm
 06:05     21:33    Daglengte: 15:28 Donderdag 29 Jul
02:00 15.4° 1008.4 hPa 5.4 m/s 0.0 mm 15.6° 1007.7 hPa 4.5 m/s 118.4 mm 15.6° 1009.2 hPa 5.2 m/s 0.0 mm 15.0° 1008.8 hPa 6.5 m/s 14.7° 1008.0 hPa 5.0 m/s 0.0 mm
05:00 14.4° 1007.8 hPa 6.1 m/s 13.4 mm 14.2° 1007.2 hPa 5.8 m/s 118.4 mm 15.3° 1009.5 hPa 5.2 m/s 0.0 mm 13.7° 1009.0 hPa 6.3 m/s 13.8° 1008.0 hPa 6.0 m/s 0.0 mm
08:00 14.6° 1008.7 hPa 6.9 m/s 13.4 mm 14.5° 1007.5 hPa 7.0 m/s 118.4 mm 15.5° 1010.5 hPa 5.5 m/s 0.0 mm 14.2° 1009.4 hPa 7.1 m/s 13.6° 1008.0 hPa 7.0 m/s 0.0 mm
11:00 18.3° 1010.5 hPa 6.8 m/s 0.0 mm 18.2° 1007.8 hPa 8.5 m/s 118.4 mm 18.3° 1011.2 hPa 6.4 m/s 0.0 mm 17.8° 1010.8 hPa 7.2 m/s 15.0° 1009.0 hPa 8.0 m/s 0.0 mm
14:00 19.7° 1010.7 hPa 7.0 m/s 0.0 mm 18.9° 1008.5 hPa 9.3 m/s 118.4 mm 20.0° 1011.3 hPa 6.4 m/s 0.0 mm 21.6° 1011.1 hPa 7.4 m/s 16.8° 1010.0 hPa 8.0 m/s 0.5 mm
17:00 18.4° 1010.4 hPa 7.7 m/s 6.0 mm 20.8° 1011.5 hPa 7.6 m/s 11.8 mm 17.6° 1010.0 hPa 8.0 m/s 0.2 mm
20:00 17.5° 1011.2 hPa 6.5 m/s 11.8 mm 18.9° 1011.6 hPa 6.3 m/s 11.8 mm 17.0° 1011.0 hPa 7.0 m/s 0.0 mm
23:00 14.8° 1011.3 hPa 5.2 m/s 11.8 mm 15.5° 1012.1 hPa 4.6 m/s 11.8 mm 14.5° 1011.0 hPa 7.0 m/s 0.0 mm
 06:07     21:32    Daglengte: 15:25 Vrijdag 30 Jul
02:00 13.7° 1011.2 hPa 4.5 m/s 11.8 mm 13.9° 1012.0 hPa 3.9 m/s 11.8 mm 13.6° 1011.0 hPa 6.0 m/s 0.0 mm
05:00 12.8° 1011.2 hPa 4.1 m/s 11.8 mm 12.7° 1011.7 hPa 3.4 m/s 11.8 mm 13.3° 1011.0 hPa 6.0 m/s 0.0 mm
08:00 13.8° 1011.2 hPa 4.4 m/s 6.0 mm 14.2° 1011.9 hPa 3.9 m/s 11.8 mm 13.7° 1011.0 hPa 6.0 m/s 0.3 mm
11:00 16.4° 1011.5 hPa 4.4 m/s 11.8 mm 19.3° 1011.4 hPa 3.9 m/s 11.8 mm 15.4° 1012.0 hPa 6.0 m/s 0.0 mm
14:00 19.2° 1010.6 hPa 4.6 m/s 6.1 mm 22.7° 1010.1 hPa 3.8 m/s 11.8 mm 18.1° 1012.0 hPa 7.0 m/s 0.5 mm
17:00 19.9° 1009.6 hPa 3.8 m/s 6.0 mm 22.2° 1008.8 hPa 3.3 m/s 11.8 mm 19.1° 1012.0 hPa 5.0 m/s 0.3 mm
20:00 18.7° 1008.6 hPa 2.6 m/s 12.4 mm 19.6° 1007.4 hPa 2.2 m/s 12.4 mm 18.4° 1012.0 hPa 4.0 m/s 0.0 mm
23:00 16.3° 1009.1 hPa 2.3 m/s 13.2 mm 16.3° 1008.2 hPa 2.1 m/s 13.2 mm 16.3° 1012.0 hPa 3.0 m/s 0.0 mm
 06:08     21:30    Daglengte: 15:22 Zaterdag 31 Jul
02:00 14.8° 1009.0 hPa 3.1 m/s 6.8 mm 14.6° 1007.9 hPa 2.8 m/s 13.3 mm 15.3° 1012.0 hPa 4.0 m/s 0.2 mm
05:00 13.6° 1007.7 hPa 3.3 m/s 13.3 mm 13.2° 1006.7 hPa 3.0 m/s 13.3 mm 14.8° 1011.0 hPa 4.0 m/s 0.0 mm
08:00 14.5° 1007.1 hPa 4.3 m/s 6.8 mm 14.5° 1005.8 hPa 5.1 m/s 13.3 mm 14.7° 1011.0 hPa 4.0 m/s 0.3 mm
11:00 14.3° 1006.4 hPa 4.8 m/s 7.2 mm 14.0° 1004.9 hPa 7.2 m/s 13.9 mm 15.2° 1011.0 hPa 4.0 m/s 0.5 mm
14:00 16.3° 1005.7 hPa 4.9 m/s 8.3 mm 16.6° 1004.3 hPa 7.5 m/s 15.1 mm 16.2° 1010.0 hPa 4.0 m/s 1.5 mm
17:00 18.3° 1006.5 hPa 5.1 m/s 8.4 mm 20.3° 1005.3 hPa 8.4 m/s 16.0 mm 17.6° 1010.0 hPa 4.0 m/s 0.8 mm
20:00 17.8° 1007.8 hPa 3.4 m/s 16.0 mm 18.6° 1007.1 hPa 4.7 m/s 16.0 mm 17.5° 1010.0 hPa 3.0 m/s 0.0 mm
23:00 15.0° 1008.9 hPa 2.2 m/s 16.0 mm 14.9° 1008.2 hPa 2.6 m/s 16.0 mm 15.3° 1011.0 hPa 2.0 m/s 0.0 mm
 06:10     21:29    Daglengte: 15:19 Zondag 01 Aug
02:00 14.2° 1008.4 hPa 3.1 m/s 16.0 mm 15.0° 1007.8 hPa 3.4 m/s 16.0 mm 14.0° 1010.0 hPa 3.0 m/s 0.0 mm
05:00 13.2° 1007.9 hPa 2.4 m/s 16.1 mm 13.2° 1007.2 hPa 3.5 m/s 16.1 mm 13.4° 1010.0 hPa 2.0 m/s 0.0 mm
08:00 14.0° 1008.1 hPa 2.6 m/s 8.2 mm 14.4° 1007.1 hPa 4.4 m/s 16.2 mm 13.8° 1011.0 hPa 2.0 m/s 0.2 mm
11:00 16.3° 1008.7 hPa 3.7 m/s 8.7 mm 17.4° 1007.6 hPa 6.0 m/s 17.0 mm 16.0° 1012.0 hPa 3.0 m/s 0.3 mm
14:00 18.2° 1009.4 hPa 4.5 m/s 9.3 mm 19.2° 1008.5 hPa 6.0 m/s 17.4 mm 17.9° 1012.0 hPa 4.0 m/s 1.2 mm
17:00 18.1° 1010.0 hPa 4.4 m/s 9.0 mm 18.9° 1009.3 hPa 5.7 m/s 17.5 mm 17.8° 1012.0 hPa 4.0 m/s 0.5 mm
20:00 16.6° 1011.4 hPa 4.2 m/s 9.1 mm 16.7° 1010.8 hPa 4.9 m/s 17.9 mm 16.6° 1013.0 hPa 4.0 m/s 0.3 mm
23:00 13.7° 1013.5 hPa 2.0 m/s 17.9 mm 13.4° 1013.0 hPa 2.2 m/s 17.9 mm 14.3° 1015.0 hPa 2.0 m/s 0.0 mm
 06:11     21:27    Daglengte: 15:16 Maandag 02 Aug
02:00 12.3° 1014.0 hPa 2.0 m/s 17.9 mm 12.3° 1014.0 hPa 2.0 m/s 17.9 mm
05:00 11.3° 1014.5 hPa 2.2 m/s 17.9 mm 11.3° 1014.5 hPa 2.2 m/s 17.9 mm
08:00 13.2° 1015.4 hPa 2.2 m/s 17.9 mm 13.2° 1015.4 hPa 2.2 m/s 17.9 mm
11:00 16.1° 1016.6 hPa 2.8 m/s 18.0 mm 16.1° 1016.6 hPa 2.8 m/s 18.0 mm
14:00 17.6° 1016.4 hPa 2.1 m/s 18.0 mm 17.6° 1016.4 hPa 2.1 m/s 18.0 mm
20:00 18.8° 1015.3 hPa 0.5 m/s 18.0 mm 18.8° 1015.3 hPa 0.5 m/s 18.0 mm
 06:13     21:25    Daglengte: 15:12 Dinsdag 03 Aug
02:00 13.3° 1015.9 hPa 1.6 m/s 18.2 mm 13.3° 1015.9 hPa 1.6 m/s 18.2 mm
08:00 13.4° 1016.3 hPa 3.5 m/s 18.2 mm 13.4° 1016.3 hPa 3.5 m/s 18.2 mm
14:00 22.0° 1015.4 hPa 4.6 m/s 18.2 mm 22.0° 1015.4 hPa 4.6 m/s 18.2 mm
20:00 20.5° 1014.2 hPa 3.6 m/s 18.2 mm 20.5° 1014.2 hPa 3.6 m/s 18.2 mm
 06:14     21:24    Daglengte: 15:10 Woensdag 04 Aug
02:00 15.6° 1013.5 hPa 3.6 m/s 18.2 mm 15.6° 1013.5 hPa 3.6 m/s 18.2 mm
08:00 16.2° 1011.9 hPa 4.4 m/s 18.2 mm 16.2° 1011.9 hPa 4.4 m/s 18.2 mm
14:00 22.4° 1010.2 hPa 7.5 m/s 18.2 mm 22.4° 1010.2 hPa 7.5 m/s 18.2 mm
20:00 20.0° 1009.7 hPa 6.7 m/s 19.2 mm 20.0° 1009.7 hPa 6.7 m/s 19.2 mm
 06:16     21:22    Daglengte: 15:06 Donderdag 05 Aug
02:00 15.1° 1010.1 hPa 4.5 m/s 19.2 mm 15.1° 1010.1 hPa 4.5 m/s 19.2 mm
08:00 14.9° 1009.0 hPa 4.5 m/s 19.2 mm 14.9° 1009.0 hPa 4.5 m/s 19.2 mm
14:00 20.4° 1013.2 hPa 3.1 m/s 1.9 mm
20:00 19.2° 1012.6 hPa 2.4 m/s 1.4 mm
 06:17     21:20    Daglengte: 15:03 Vrijdag 06 Aug
02:00 15.3° 1012.8 hPa 2.7 m/s 0.5 mm
08:00 15.3° 1012.4 hPa 3.6 m/s 0.7 mm
14:00 20.8° 1012.8 hPa 4.7 m/s 0.5 mm
20:00 18.9° 1012.9 hPa 3.5 m/s 1.4 mm
 06:19     21:18    Daglengte: 14:59 Zaterdag 07 Aug
02:00 14.8° 1013.7 hPa 3.0 m/s 0.2 mm
08:00 15.0° 1013.3 hPa 3.2 m/s 0.6 mm
14:00 20.9° 1013.2 hPa 4.1 m/s 1.3 mm
20:00 18.9° 1013.0 hPa 3.1 m/s 1.2 mm
 06:20     21:16    Daglengte: 14:56 Zondag 08 Aug
02:00 15.2° 1013.5 hPa 2.2 m/s 0.8 mm
08:00 15.5° 1013.3 hPa 3.0 m/s 0.5 mm